Hagerstown, MD

2:25 PM EDT on April 23, 2017 (GMT -0400)
Hagerstown Regional-Henson

Weather History for KHGR - April, 2012

Change the Weather History Date:

Sunday, April 15, 2012

  Actual Average Record
Temperature  
Mean Temperature 68 °F 53 °F  
Max Temperature 79 °F 63 °F 82 °F (2003)
Min Temperature 56 °F 43 °F 34 °F (2008)
Degree Days  
Heating Degree Days 0 13  
Month to date heating degree days 189 227  
Since 1 July heating degree days 3897 4859  
Cooling Degree Days 3 0  
Month to date cooling degree days 3 0  
Year to date cooling degree days 12 1  
Growing Degree Days 17 (Base 50)    
Moisture  
Dew Point 53 °F    
Average Humidity 66    
Maximum Humidity 93    
Minimum Humidity 39    
Precipitation  
Precipitation 0.05 in 0.12 in 1.76 in (2007)
Month to date precipitation 0.42 1.87  
Year to date precipitation 6.80 10.48  
Sea Level Pressure  
Sea Level Pressure 30.05 in    
Wind  
Wind Speed 5 mph (South)    
Max Wind Speed 14 mph    
Max Gust Speed 20 mph    
Visibility 9 miles    
Events Rain    
T = Trace of Precipitation, MM = Missing Value Source: NWS Daily Summary

Daily Weather History Graph

Daily Weather History Graph

Search for Another Location

Airport or City:

Trip Planner

Search our weather history database for the weather conditions in past years. The results will help you decide how hot, cold, wet, or windy it might be!

Date:

Astronomy

Apr. 15, 2012 Rise Set
Actual Time 6:32 AM EDT 7:49 PM EDT
Civil Twilight 6:04 AM EDT 8:17 PM EDT
Nautical Twilight 5:31 AM EDT 8:51 PM EDT
Astronomical Twilight 4:56 AM EDT 9:26 PM EDT
Moon 3:28 AM EDT (4/15) 2:43 PM EDT (4/15)
Length of Visible Light 14h 12m
Length of Day
13h 16m
Waning Crescent, 28% of the Moon is Illuminated
Apr 15
Waning Crescent
Apr 21
New
Apr 29
First Quarter
May 5
Full
May 12
Last Quarter

Hourly Weather History & Observations

Time (EDT) Temp. Dew Point Humidity Pressure Visibility Wind Dir Wind Speed Gust Speed Precip Events Conditions
12:53 AM 57.0 °F 54.0 °F 89% 30.08 in 9.0 mi SSE 6.9 mph - 0.03 in Rain Light Rain
1:53 AM 57.0 °F 54.0 °F 89% 30.06 in 7.0 mi Calm Calm - 0.03 in Rain Light Rain
2:53 AM 57.0 °F 53.1 °F 87% 30.04 in 9.0 mi East 8.1 mph - 0.02 in   Overcast
3:53 AM 55.9 °F 54.0 °F 93% 30.04 in 7.0 mi NNE 3.5 mph - 0.00 in Rain Light Rain
4:53 AM 55.9 °F 54.0 °F 93% 30.04 in 5.0 mi Calm Calm - 0.00 in   Overcast
5:53 AM 57.0 °F 53.1 °F 87% 30.04 in 9.0 mi ENE 3.5 mph - N/A   Overcast
6:53 AM 55.9 °F 54.0 °F 93% 30.06 in 5.0 mi SSE 3.5 mph - N/A   Mostly Cloudy
7:53 AM 57.0 °F 54.0 °F 89% 30.08 in 7.0 mi SSE 3.5 mph - N/A   Overcast
8:53 AM 59.0 °F 52.0 °F 78% 30.09 in 10.0 mi Calm Calm - N/A   Overcast
9:53 AM 61.0 °F 52.0 °F 72% 30.10 in 10.0 mi South 5.8 mph - N/A   Overcast
10:53 AM 63.0 °F 51.1 °F 65% 30.11 in 10.0 mi South 6.9 mph - N/A   Clear
11:53 AM 66.0 °F 53.1 °F 63% 30.09 in 10.0 mi South 6.9 mph - N/A   Clear
12:53 PM 71.1 °F 55.0 °F 57% 30.06 in 10.0 mi SW 6.9 mph - N/A   Clear
1:53 PM 73.9 °F 55.0 °F 52% 30.06 in 10.0 mi SW 6.9 mph - N/A   Clear
2:53 PM 75.9 °F 55.0 °F 48% 30.04 in 10.0 mi West 8.1 mph - N/A   Clear
3:53 PM 78.1 °F 53.1 °F 42% 30.02 in 10.0 mi West 6.9 mph - N/A   Clear
4:53 PM 79.0 °F 52.0 °F 39% 30.01 in 10.0 mi SSW 6.9 mph - N/A   Clear
5:53 PM 79.0 °F 53.1 °F 40% 30.01 in 10.0 mi South 10.4 mph - N/A   Clear
6:53 PM 78.1 °F 54.0 °F 43% 30.01 in 10.0 mi South 8.1 mph - N/A   Clear
7:53 PM 73.0 °F 54.0 °F 51% 30.01 in 10.0 mi SSE 6.9 mph - N/A   Clear
8:53 PM 72.0 °F 53.1 °F 51% 30.01 in 10.0 mi South 6.9 mph - N/A   Clear
9:53 PM 68.0 °F 52.0 °F 56% 30.02 in 10.0 mi South 4.6 mph - N/A   Clear
10:53 PM 68.0 °F 52.0 °F 56% 30.01 in 10.0 mi SSE 4.6 mph - N/A   Clear
11:53 PM 70.0 °F 51.1 °F 51% 30.01 in 10.0 mi SE 6.9 mph - N/A   Clear